[[{"header":{"parameterUnit":"m.s-1","parameterCategory":1,"la1":30.2992,"la2":30.254,"lo1":-89.0895,"lo2":-89.0443,"dy":0.0025,"dx":0.0025,"nx":19,"ny":19,"refTime":"2026-04-06T21:00:00:Z","depth":0,"parameterNumber":2,"parameterNumberName":"U-component_of_WINDS"},"data":[0,0,0,-7.7446,-7.7451,-7.7635,-7.7635,-7.7942,-7.7945,0,0,0,0,0,0,0,0,0,0,0,-7.7436,-7.744,-7.7446,-7.7452,-7.7634,-7.7635,-7.7941,-7.7945,0,0,0,0,0,0,0,0,0,0,0,-7.7434,-7.7439,-7.7443,-7.7452,-7.7634,-7.7635,-7.7941,-7.7776,0,0,0,0,0,0,0,0,0,0,-7.7586,-7.762,-7.7438,-7.7444,-7.7454,-7.7634,-7.7635,-7.7767,-7.7787,-7.789,0,-7.7994,0,-7.7975,-7.7971,-7.7972,0,0,0,-7.7418,-7.7605,-7.7614,-7.7444,-7.7456,-7.7634,-7.7543,-7.7777,-7.7799,-7.7917,-7.7998,-7.8007,-7.798,-7.7973,-7.7975,-7.8681,-7.8685,0,0,-7.7408,-7.7493,-7.7599,-7.763,-7.7607,-7.7537,-7.7549,-7.7789,-7.7884,-7.7999,-7.8013,-7.7985,-7.7976,-7.7979,-7.8676,-7.8682,0,0,0,-7.7402,-7.7488,-7.7489,-7.762,-7.7647,-7.7543,-7.7557,-7.7873,-7.7866,-7.8016,-7.7989,-7.7978,-7.7982,-7.8671,-7.8678,-7.8998,0,0,0,-7.7394,-7.7483,-7.7486,-7.7541,-7.7644,-7.7763,-7.7637,-7.785,-7.7874,-7.7988,-7.7978,-7.7986,-7.8665,-7.8674,-7.8977,-7.9135,0,0,0,-7.7409,-7.7484,-7.7526,-7.7545,-7.7626,-7.7757,-7.7763,-7.7853,-7.786,-7.7972,-7.7987,-7.8661,-7.8673,-7.8959,-7.9104,-7.9343,0,0,0,-7.745,-7.781,-7.7533,-7.7925,-7.7626,-7.7954,-7.776,-7.8001,-7.8136,-7.798,-7.8666,-7.8677,-7.8953,-7.9086,-7.9324,-7.9557,-7.9663,0,0,-7.7952,-7.7874,-7.8097,-7.7854,-7.8253,-7.7919,-7.8365,-7.8408,-7.8342,-7.8572,-7.8588,-7.8984,-7.9102,-7.9339,-8.023,-8.0315,0,0,0,-7.8285,-7.8446,-7.8533,-7.8665,-7.8707,-7.8754,-7.872,-7.8736,-7.8926,-7.8478,-7.9133,-7.9201,-7.9336,-7.9443,-7.9515,-7.9625,-7.8731,-7.873,-7.8729,-7.9116,-7.901,-7.9372,-7.9289,-7.942,-7.938,-7.9475,-7.9489,-7.9347,-7.9504,-7.957,-8.0124,-8.0253,-8.0306,-8.0422,-7.9687,-7.9688,-7.9689,-7.969,-7.9839,-8.0049,-7.9849,-8.0128,-8.0015,-8.0248,-8.0224,-8.0114,-8.0314,-8.0065,-8.0179,-7.9914,-8.0403,-8.0497,-7.9713,-7.9709,-7.9706,-7.9704,-7.9702,-8.0369,-8.0451,-8.0464,-8.0641,-8.0791,-8.0693,-8.0894,-8.0784,-8.0682,-8.0795,-8.0852,-8.0846,-8.0824,-8.083,-8.0832,-8.0834,-8.0836,-8.0837,-8.0838,-8.0913,-8.0917,-8.1099,-8.1173,-8.1241,-8.1317,-8.1281,-8.1346,-8.1389,-8.1293,-8.1293,-8.1133,-8.0471,-8.0305,-8.0868,-8.0862,-8.0859,-8.0856,-8.0854,-8.1681,-8.1489,-8.1771,-8.184,-8.1915,-8.2069,-8.1926,-8.2067,-8.2105,-8.2207,-8.2023,-8.1552,-8.1464,-8.1406,-8.1268,-8.2046,-8.2046,-8.2046,-8.2046,-8.2126,-8.2071,-8.2332,-8.2449,-8.2551,-8.245,-8.277,-8.2746,-8.269,-8.2707,-8.2579,-8.2387,-8.2333,-8.2277,-8.22,-8.2069,-8.3033,-8.3034,-8.3035,-8.259,-8.254,-8.2833,-8.2775,-8.2826,-8.2872,-8.3168,-8.3311,-8.3208,-8.3073,-8.2716,-8.2675,-8.2364,-8.2269,-8.2124,-8.2007,-8.1764,0,0]},{"header":{"parameterUnit":"m.s-1","parameterCategory":1,"la1":30.2992,"la2":30.254,"lo1":-89.0895,"lo2":-89.0443,"dy":0.0025,"dx":0.0025,"nx":19,"ny":19,"refTime":"2026-04-06T21:00:00:Z","depth":0,"parameterNumber":3,"parameterNumberName":"V-component_of_WINDS"},"data":[0,0,0,-0.1135,-0.1135,-0.1139,-0.1139,-0.1122,-0.1121,0,0,0,0,0,0,0,0,0,0,0,-0.1122,-0.1121,-0.1135,-0.1135,-0.1139,-0.1139,-0.1122,-0.1121,0,0,0,0,0,0,0,0,0,0,0,-0.1122,-0.1121,-0.1121,-0.1135,-0.1139,-0.114,-0.1122,-0.1126,0,0,0,0,0,0,0,0,0,0,-0.1126,-0.1102,-0.1121,-0.1121,-0.1135,-0.1139,-0.114,-0.1127,-0.1126,-0.111,0,-0.1094,0,-0.1107,-0.1119,-0.1119,0,0,0,-0.1144,-0.1103,-0.1115,-0.112,-0.1135,-0.1139,-0.114,-0.1127,-0.1126,-0.1109,-0.1094,-0.1094,-0.1107,-0.1119,-0.1118,-0.0999,-0.0998,0,0,-0.1144,-0.1116,-0.1116,-0.1114,-0.1114,-0.114,-0.114,-0.1127,-0.1108,-0.1094,-0.1094,-0.1107,-0.1118,-0.1118,-0.1,-0.0999,0,0,0,-0.1137,-0.1115,-0.1128,-0.1114,-0.1116,-0.114,-0.114,-0.1109,-0.1116,-0.1094,-0.1107,-0.1118,-0.1118,-0.1001,-0.0999,-0.0923,0,0,0,-0.1137,-0.1111,-0.1128,-0.111,-0.1116,-0.1113,-0.1122,-0.1116,-0.1116,-0.1107,-0.1118,-0.1117,-0.1002,-0.1,-0.0928,-0.0891,0,0,0,-0.1125,-0.111,-0.1107,-0.1109,-0.111,-0.1114,-0.112,-0.1117,-0.1123,-0.1119,-0.1117,-0.1003,-0.1,-0.0932,-0.0898,-0.085,0,0,0,-0.1105,-0.104,-0.1105,-0.1037,-0.111,-0.1067,-0.1121,-0.1091,-0.1078,-0.1118,-0.1002,-0.1,-0.0933,-0.0902,-0.0854,-0.0804,-0.0781,0,0,-0.1007,-0.1027,-0.0989,-0.1047,-0.0986,-0.1069,-0.0996,-0.1011,-0.1036,-0.1009,-0.1007,-0.0926,-0.0899,-0.0851,-0.0663,-0.0645,0,0,0,-0.0948,-0.092,-0.091,-0.0897,-0.0907,-0.0911,-0.094,-0.0945,-0.0924,-0.1017,-0.0898,-0.0882,-0.0855,-0.0832,-0.0817,-0.0795,-0.0988,-0.0988,-0.0989,-0.0769,-0.0804,-0.0742,-0.0777,-0.0763,-0.0793,-0.0784,-0.0796,-0.0836,-0.0807,-0.0799,-0.0681,-0.0653,-0.0642,-0.0618,-0.0776,-0.0776,-0.0776,-0.0776,-0.0627,-0.0592,-0.0646,-0.0605,-0.0642,-0.0608,-0.0632,-0.0662,-0.0634,-0.0691,-0.0669,-0.0726,-0.062,-0.0601,-0.077,-0.0771,-0.0772,-0.0772,-0.0773,-0.0513,-0.0502,-0.0509,-0.0492,-0.0474,-0.0511,-0.0481,-0.0516,-0.0549,-0.0527,-0.0521,-0.0523,-0.0527,-0.0522,-0.0522,-0.0521,-0.0521,-0.0521,-0.0521,-0.0391,-0.0401,-0.0373,-0.0375,-0.037,-0.0367,-0.0394,-0.039,-0.0393,-0.042,-0.0421,-0.0462,-0.0604,-0.0638,-0.0514,-0.0515,-0.0516,-0.0517,-0.0517,-0.0232,-0.0273,-0.0228,-0.0223,-0.0228,-0.0206,-0.0251,-0.0237,-0.0238,-0.0222,-0.0267,-0.0367,-0.039,-0.0403,-0.0431,-0.0261,-0.0261,-0.0261,-0.0261,-0.0134,-0.0149,-0.011,-0.0098,-0.0091,-0.0126,-0.0071,-0.009,-0.0117,-0.0119,-0.0149,-0.019,-0.0201,-0.0217,-0.0234,-0.0261,-0.0051,-0.0051,-0.0051,-0.0038,-0.0053,-0.0001,-0.0028,-0.0034,-0.0037,0.0014,0.0032,-0.0007,-0.0043,-0.0121,-0.013,-0.0196,-0.0216,-0.0254,-0.0279,-0.0329,0,0]}]]